星链-2124 (STARLINK-2124 )

导读 | 豆包AI

STARLINK-2124是美国太空探索技术公司(SpaceX)发射的星链(Starlink)卫星,属于星链计划中低轨互联网星座组网卫星之一,于北京时间2021年1月20日8时发射,星链旨在为全球提供覆盖广泛的高速互联网接入服务,该卫星入轨后参与了星座组网运行。

基本信息
目录编号:
47402
目录名称:
STARLINK-2124
国际标识:
2021-005BF
轨道中心:
EARTH
卫星名称:
星链-2124
卫星全名:
星链-2124 (STARLINK-2124 )
卫星状态:
已陨落 最后检测时间 2025-01-13
发射日期:
2021-01-20 UTC
国别 :
美国 (US)
星等 :
--
轨道信息
数据来源 国际轨道数据
星历时间: 2025-01-13T21:34:18+0800
轨道信息已过期424天
半长轴: 6532.091km
偏心率: 0.0003093
轨道倾角: 53.032°
近地点辐角 328.610°
升交点赤经 95.088°
平近点角 136.804°
近地点: 151.935km
远地点: 155.977km
周期: 87.567分钟
每日圈数: 16.444643
详细信息
固有亮度:
5
最大亮度:
2.5
卫星平台:
Starlink V1.0
覆盖范围:
全球
运营商:
太空探索技术公司
运营商所在国:
美国
制造商(研发单位):
太空探索技术公司
制造商所在国:
美国
使用方式:
暂无
卫星简介
星链(Starlink)计划是由太空探索技术公司(SpaceX)提出的一个巨型低轨卫星互联网星座项目,计划在2019年至2024年间在太空搭建由约1.2万颗卫星组成的“星链”网络,其中1584颗将部署在地球上空550千米处的近地轨道,并从2020年开始工作。该卫星仍在工作。